Regional Weather Roundup
Issued by NWS Upton, NY

Current Version | Previous Version | Graphics & Text | Print | Product List | Glossary Off
Versions: 1 2 3 4 5 6 7 8 9 10 11 12 13 14 15 16 17 18 19 20 21 22 23 24 25 26 27 28 29 30 31 32 33 34 35 36 37 38 39 40 41 42 43 44 45 46 47 48 49 50

000
ASUS41 KOKX 060504
RWROKX

REGIONAL WEATHER ROUNDUP
NATIONAL WEATHER SERVICE NEW YORK NY
1200 AM EST SAT FEB 06 2016

NOTE: "FAIR" INDICATES FEW OR NO CLOUDS BELOW 12,000 FEET WITH NO
SIGNIFICANT WEATHER AND/OR OBSTRUCTIONS TO VISIBILITY.

NYZ071-072-176-178-NJZ106-104-060600-
NEW YORK CITY METRO AREA


CITY           SKY/WX    TMP DP  RH WIND       PRES   REMARKS
CENTRAL PARK   CLEAR     32  15  49 NW9G20    30.34S WCI  24
LAGUARDIA APRT CLEAR     34  18  52 NW13G21   30.32S WCI  25
KENNEDY INTL   CLEAR     32  15  49 NW15      30.34S WCI  22
NEWARK/LIBERTY CLEAR     32  16  51 N6        30.34S WCI  26
BRNX BOT. GARD   N/A     32  16  51 NW8       30.31S WCI  25
TETERBORO      CLEAR     31  16  54 NW5       30.33S WCI  26
$$

NYZ177-179-078>081-060600-
LONG ISLAND NEW YORK

CITY           SKY/WX    TMP DP  RH WIND       PRES   REMARKS
FARMINGDALE    PTCLDY    29  17  61 CALM      30.32S
ISLIP          CLEAR     22  14  71 NW3       30.29S
SHIRLEY        CLEAR     24  17  74 NW8       30.30S WCI  15
RIVERHEAD        N/A     32  16  51 W1        30.31S
WESTHAMPTON      N/A    N/A N/A N/A MISG      30.30S
EAST HAMPTON   FAIR      28  20  71 NW6       30.28R WCI  22
MONTAUK POINT    N/A     33  20  58 NW14G23   30.29R WCI  23
$$

NYZ052-065-067-060600-
HUDSON VALLEY

CITY           SKY/WX    TMP DP  RH WIND       PRES   REMARKS
WHITE PLAINS   CLEAR     30  14  51 NW10      30.28S WCI  21
NEWBURGH       CLEAR     28  18  64 CALM      30.31R
MONTGOMERY     CLEAR     25  16  68 W6        30.31R WCI  18
POUGHKEEPSIE   CLEAR     25  15  66 NE5       30.32R WCI  19
ALBANY         CLEAR     24  13  62 CALM      30.30F
$$

NJZ001-105-106-008-010-013-015-019>022-104-060600-
NEW JERSEY

CITY           SKY/WX    TMP DP  RH WIND       PRES   REMARKS
NEWARK/LIBERTY CLEAR     32  16  51 N6        30.34S WCI  26
TETERBORO      CLEAR     31  16  54 NW5       30.33S WCI  26
CALDWELL       CLEAR     28  15  58 CALM      30.34S
MORRISTOWN     CLEAR     27  16  63 CALM      30.33S
SOMERVILLE     CLEAR     26  18  71 NW3       30.33R
SUSSEX         CLEAR     24  16  71 CALM      30.32S
ANDOVER          N/A     25  18  74 CALM      30.32S
TRENTON        CLEAR     30  17  58 CALM      30.34S
MILLVILLE      CLEAR     24  23  96 W3        30.37R
ATLANTIC CITY  CLEAR     28  20  71 NW3       30.36R
WRIGHTSTOWN    CLEAR     26  20  77 NW3       30.32S
TOMS RIVER     CLEAR     27  19  74 CALM      30.35R
BELMAR         CLEAR     28  12  50 NW7       30.33S WCI  21
$$

PAZ047>061-062-071-060600-
EASTERN PENNSYLVANIA

CITY           SKY/WX    TMP DP  RH WIND       PRES   REMARKS
PHILADELPHIA   PTCLDY    35  16  45 W3        30.38R
ALLENTOWN      CLEAR     26  16  65 CALM      30.33F
SCRANTON       PTCLDY    25  16  68 SE3       30.30F
$$

CTZ002-004>006-009-010-012-RIZ004-006-007-MAZ004-011-015-060600-
SOUTHERN NEW ENGLAND
 IN CT

CITY           SKY/WX    TMP DP  RH WIND       PRES   REMARKS
BRADLEY INTL   CLEAR     27  13  55 NW6       30.28R WCI  20
HARTFORD       CLEAR     28  15  58 NW5       30.31R WCI  23
DANBURY        CLEAR     27   9  46 VRB3      30.30R
WTRBRY/OXFORD  CLEAR     27   7  43 NW8G18    30.27F WCI  18
BRIDGEPORT     CLEAR     21  14  74 CALM      30.31S
MERIDEN        CLEAR     22  17  81 CALM      30.30R
NEW HAVEN      CLEAR     29  15  56 NW5       30.30S WCI  24
CHESTER        FAIR      28  18  64 NW10G17   30.27S WCI  19
GROTON         CLEAR     26  19  74 NW8       30.28R WCI  18
WILLIMANTIC    PTCLDY    20  17  88 CALM      30.28R

 IN RI

CITY           SKY/WX    TMP DP  RH WIND       PRES   REMARKS
PROVIDENCE     PTCLDY    26  18  71 NW6       30.26R WCI  19
BLOCK ISLAND   CLEAR     30  19  64 N12G22    30.25R WCI  21
WESTERLY       CLEAR     25  19  78 CALM      30.27S

 IN MA

CITY           SKY/WX    TMP DP  RH WIND       PRES   REMARKS
BOSTON         CLEAR     26  16  65 NW10G23   30.25R WCI  16
WORCESTER      CLEAR     21  11  65 W10       30.20R WCI  10
WESTFIELD      CLEAR     22  13  68 CALM      30.28R
PROVINCETOWN   CLEAR     28  23  81 NW23G30   30.23R WCI  14
NANTUCKET      CLEAR     30  23  75 NW21      30.23R WCI  17
$$

ANZ330-335-338-340-345-350-353-355-060600-
COASTAL MARINE OBSERVATIONS


STATION/POSITION TIME  SKY/WX   TEMP    WIND        PRES    VSBY  WAVE
                                AIR SEA DIR/SP/G                  HT/PER
                 (UTC)          (F)     (DEG/KT/KT) (MB)    (MI)  (FT/S)
NY HARB ENTRANCE 0350            36 44  320/ 19/ 23 1026.4          3/ 4
4S FIRE IS       NOT AVBL
20S FIRE ISLAND  0350            37 45  320/ 21/ 25 1025.7          5/ 6
GREAT SOUTH BAY  NOT AVBL
23SW MTP         0450            36 46  320/ 21/ 27 1024.5          6/11
HUDSON CANYON    0350            41 51              1024.8          9/ 7
KINGS POINT      0400            33 39  360/ 11/ 13 1026.4
EXECUTION ROCKS  NOT AVBL
CENTRAL LI SOUND 0430            34     310/ 19/ 25   N/A           3/ 3
EASTERN LI SOUND 0400            33 42  310/ 12/ 16   N/A
ROBBINS REEF     0400            33     320/ 14/ 21 1026.2
$$


>>>>>>>>>>>>>>>>>>>>>>>>>>>> KEY <<<<<<<<<<<<<<<<<<<<<<<<<<<
>                                                          <
>     SKY/WX - SKY CONDITION/PRESENT WEATHER               <
>     TMP    - TEMPERATURE IN FAHRENHEIT                   <
>     DP     - DEWPOINT IN FAHRENHEIT                      <
>     RH     - RELATIVE HUMIDITY IN PERCENT                <
>     WIND   - DIRECTION AND SPEED IN MPH                  <
>     PRES   - MEAN SEA LEVEL PRESSURE IN INCHES OF HG     <
>     WCI    - WIND CHILL INDEX                            <
>     VSB    - VISIBILITY IN MILES                         <
>     HX     - HEAT INDEX                                  <
>     TC     - TEMPERATURE IN CELSIUS                      <
>     VRB    - VARIABLE WIND DIRECTION                     <
>                                                          <
>>>>>>>>>>>>>>>>>>>>>>>>>>>> KEY <<<<<<<<<<<<<<<<<<<<<<<<<<<





USA.gov is the U.S. government's official web portal to all federal, state and local government web resources and services.